Salem, OR

8:26 PM PDT on July 23, 2017 (GMT -0700)
McNary

Weather History for KSLE - July, 2013

Change the Weather History Date:

Tuesday, July 9, 2013

  Actual Average Record
Temperature  
Mean Temperature 73 °F 67 °F  
Max Temperature 92 °F 81 °F 100 °F (1926)
Min Temperature 54 °F 53 °F 39 °F (1960)
Degree Days  
Heating Degree Days 0 1  
Month to date heating degree days 0 14  
Since 1 June heating degree days 79 144  
Since 1 July heating degree days 0 14  
Cooling Degree Days 8 3  
Month to date cooling degree days 56 21  
Year to date cooling degree days 119 58  
Since 1 June cooling degree days 109 49  
Growing Degree Days 22 (Base 50)    
Moisture  
Dew Point 56 °F    
Average Humidity 57    
Maximum Humidity 87    
Minimum Humidity 26    
Precipitation  
Precipitation 0.00 in 0.02 in 0.23 in (1974)
Month to date precipitation 0.00 0.20  
Year to date precipitation 11.61 21.29  
Snow  
Snow 0.00 in - - ()
Month to date snowfall 0.0  
Since 1 June snowfall 0.0  
Snow Depth 0.00 in    
Sea Level Pressure  
Sea Level Pressure 30.02 in    
Wind  
Wind Speed 5 mph (NNW)    
Max Wind Speed 14 mph    
Max Gust Speed 18 mph    
Visibility 10 miles    
Events      
T = Trace of Precipitation, MM = Missing Value Source: NWS Daily Summary

Daily Weather History Graph

Daily Weather History Graph

Search for Another Location

Airport or City:

Trip Planner

Search our weather history database for the weather conditions in past years. The results will help you decide how hot, cold, wet, or windy it might be!

Date:

Astronomy

Jul. 09, 2013 Rise Set
Actual Time 5:35 AM PDT 8:59 PM PDT
Civil Twilight 4:58 AM PDT 9:35 PM PDT
Nautical Twilight 4:10 AM PDT 10:22 PM PDT
Astronomical Twilight 3:10 AM PDT 11:23 PM PDT
Moon 7:10 AM PDT (7/9) 9:31 PM PDT (7/9)
Length of Visible Light 16h 36m
Length of Day
15h 23m
New Moon, 2% of the Moon is Illuminated
Jul 9
New Moon
Jul 15
First Quarter
Jul 22
Full
Jul 29
Last Quarter
Aug 6
New

Hourly Weather History & Observations

Time (PDT) Temp. Heat Index Dew Point Humidity Pressure Visibility Wind Dir Wind Speed Gust Speed Precip Events Conditions
12:56 AM 66.0 °F - 57.0 °F 73% 30.03 in 10.0 mi NNW 3.5 mph - N/A   Clear
1:56 AM 64.0 °F - 57.0 °F 78% 30.03 in 10.0 mi NNW 4.6 mph - N/A   Clear
2:56 AM 63.0 °F - 57.0 °F 81% 30.04 in 10.0 mi NNW 3.5 mph - N/A   Clear
3:56 AM 59.0 °F - 55.9 °F 90% 30.04 in 10.0 mi Calm Calm - N/A   Clear
4:56 AM 59.0 °F - 55.0 °F 87% 30.04 in 10.0 mi NNW 3.5 mph - N/A   Clear
5:56 AM 55.9 °F - 52.0 °F 87% 30.05 in 10.0 mi Calm Calm - N/A   Clear
6:56 AM 63.0 °F - 57.0 °F 81% 30.06 in 10.0 mi Calm Calm - N/A   Clear
7:56 AM 66.9 °F - 57.9 °F 73% 30.07 in 10.0 mi North 3.5 mph - N/A   Clear
8:56 AM 70.0 °F - 57.9 °F 65% 30.07 in 10.0 mi NNE 6.9 mph - N/A   Clear
9:56 AM 73.0 °F - 57.9 °F 59% 30.07 in 10.0 mi North 5.8 mph - N/A   Clear
10:56 AM 79.0 °F - 59.0 °F 50% 30.06 in 10.0 mi North 8.1 mph - N/A   Clear
11:56 AM 79.0 °F - 59.0 °F 50% 30.05 in 10.0 mi Variable 5.8 mph - N/A   Clear
12:56 PM 82.9 °F 82.8 °F 59.0 °F 44% 30.04 in 10.0 mi NNE 5.8 mph - N/A   Clear
1:56 PM 87.1 °F 85.7 °F 55.9 °F 35% 30.02 in 10.0 mi North 12.7 mph 17.3 mph N/A   Clear
2:56 PM 90.0 °F 87.7 °F 54.0 °F 29% 30.01 in 10.0 mi North 9.2 mph - N/A   Clear
3:56 PM 91.0 °F 88.5 °F 53.1 °F 27% 29.99 in 10.0 mi North 6.9 mph - N/A   Clear
4:56 PM 91.0 °F 88.7 °F 54.0 °F 28% 29.97 in 10.0 mi North 8.1 mph - N/A   Clear
5:56 PM 91.0 °F - 52.0 °F 26% 29.96 in 10.0 mi NNE 10.4 mph 17.3 mph N/A   Clear
6:39 PM 91.4 °F 89.1 °F 53.6 °F 28% 29.95 in 10.0 mi North 10.4 mph - N/A   Partly Cloudy
6:56 PM 89.1 °F 87.7 °F 57.0 °F 34% 29.95 in 10.0 mi WNW 11.5 mph 18.4 mph N/A   Clear
7:56 PM 84.0 °F 83.5 °F 57.9 °F 41% 29.96 in 10.0 mi NW 12.7 mph - N/A   Clear
8:56 PM 79.0 °F - 57.9 °F 48% 29.98 in 10.0 mi NW 6.9 mph - N/A   Clear
9:56 PM 75.9 °F - 55.9 °F 50% 30.00 in 10.0 mi WNW 5.8 mph - N/A   Clear
10:56 PM 72.0 °F - 55.0 °F 55% 30.01 in 10.0 mi NNW 4.6 mph - N/A   Clear
11:56 PM 66.9 °F - 54.0 °F 63% 30.02 in 10.0 mi North 6.9 mph - N/A   Clear